Weather WX

World > North America > United States > New Jersey

Castle Point, New Jersey Regional Weather

Lat: 40.75N, Lon: 74.03W
Wx Zone: NJZ006
Warning FLW WEATHER ALERT - (More Info. Click Here) Warning
Feedback

Castle Point, NJ Regional Weather

Expires:201907182300;;271966
ASUS41 KPHI 182213
RWRPHI

REGIONAL WEATHER ROUNDUP
NATIONAL WEATHER SERVICE MOUNT HOLLY NJ
600 PM EDT THU JUL 18 2019

NOTE:  "FAIR" INDICATES FEW OR NO CLOUDS BELOW 12,000 FEET WITH NO
SIGNIFICANT WEATHER AND/OR OBSTRUCTIONS TO VISIBILITY.

 * = STATION DOES NOT REPORT PRECIPITATION (E.G. RAIN, SNOW, ETC.) 
        OR FOG.


NJZ001>014-182300-
NORTHERN NEW JERSEY
  
CITY           SKY/WX    TMP DP  RH WIND       PRES   REMARKS
SUSSEX         CLOUDY    78  72  81 NE6       29.90R                  
ANDOVER*         N/A     79  74  84 N5        29.90R                  
MORRISTOWN     CLOUDY    79  77  94 NE6       29.88R                  
NEWARK         CLOUDY    80  73  79 NE13      29.87R                  
TETERBORO      CLOUDY    76  71  85 E9        29.88R                  
CALDWELL       CLOUDY    79  76  90 E8        29.89R                  
SOMERVILLE     HVY RAIN  77  76  96 NW5       29.86R VSB 1            
ALLAIRE*       RAIN      76  74  93 N3        29.89S                  
TOMS RIVER*    LGT RAIN N/A N/A N/A E3        29.87R                  

$$

SKY/WX - Weather  TMP - Temperature  DP - Dew Point  RH - Relative Humidity
WIND - Wind Direction/Speed PRES - Barometric Pressure VSB - Visibility
WCI - Wind Chill Index E13G22 Wind - East Wind 13 mph/Gusts of 22 mph